Weather History for KBLH - November, 2012

Change the Weather History Date:

Tuesday, November 27, 2012

  Actual Average (KNYL) Record (KNYL)
Temperature  
Mean Temperature 66 °F 61 °F  
Max Temperature 81 °F 73 °F 88 °F (1950)
Min Temperature 50 °F 50 °F 31 °F (1880)
Degree Days  
Heating Degree Days 0 4  
Month to date heating degree days 50  
Since 1 July heating degree days 52  
Cooling Degree Days 0 1  
Month to date cooling degree days 86  
Year to date cooling degree days 4648  
Growing Degree Days 16 (Base 50)    
Moisture  
Dew Point 26 °F    
Average Humidity 25    
Maximum Humidity 36    
Minimum Humidity 13    
Precipitation  
Precipitation 0.00 in 0.01 in 0.14 in (1919)
Month to date precipitation 0.18  
Year to date precipitation 3.01  
Sea Level Pressure  
Sea Level Pressure 30.07 in    
Wind  
Wind Speed 3 mph (NNW)    
Max Wind Speed 7 mph    
Max Gust Speed -    
Visibility 10 miles    
Events      
T = Trace of Precipitation, MM = Missing Value Source: NWS Daily Summary

Daily Weather History Graph

Daily Weather History Graph

Search for Another Location

Airport or City:

Trip Planner

Search our weather history database for the weather conditions in past years. The results will help you decide how hot, cold, wet, or windy it might be!

Date:

Astronomy

Nov. 27, 2012 Rise Set
Actual Time 6:22 AM PST 4:31 PM PST
Civil Twilight 5:55 AM PST 4:58 PM PST
Nautical Twilight 5:24 AM PST 5:28 PM PST
Astronomical Twilight 4:54 AM PST 5:58 PM PST
Moon 4:04 PM PST (11/27) 5:32 AM PST (11/27)
Length of Visible Light 11h 02m
Length of Day
10h 08m
Waxing Gibbous, 99% of the Moon is Illuminated
Nov 27
Waxing Gibbous
Nov 28
Full
Dec 6
Last Quarter
Dec 13
New
Dec 19
First Quarter

Hourly Weather History & Observations

Time (PST) Temp. Dew Point Humidity Pressure Visibility Wind Dir Wind Speed Gust Speed Precip Events Conditions
12:52 AM 54.0 °F 24.1 °F 31% 30.06 in 10.0 mi Calm Calm - N/A   Clear
1:52 AM 54.0 °F 24.1 °F 31% 30.06 in 10.0 mi Calm Calm - N/A   Clear
2:52 AM 50.0 °F 21.9 °F 33% 30.06 in 10.0 mi NNW 5.8 mph - N/A   Clear
3:52 AM 53.1 °F 23.0 °F 31% 30.07 in 10.0 mi North 5.8 mph - N/A   Clear
4:52 AM 55.0 °F 25.0 °F 31% 30.09 in 10.0 mi SSW 3.5 mph - N/A   Clear
5:52 AM 51.1 °F 25.0 °F 36% 30.11 in 10.0 mi SW 4.6 mph - N/A   Clear
6:52 AM 51.1 °F 23.0 °F 33% 30.13 in 10.0 mi WSW 4.6 mph - N/A   Clear
7:52 AM 57.0 °F 26.1 °F 30% 30.14 in 10.0 mi Calm Calm - N/A   Clear
8:52 AM 61.0 °F 27.0 °F 27% 30.15 in 10.0 mi South 4.6 mph - N/A   Clear
9:52 AM 66.0 °F 26.1 °F 22% 30.15 in 10.0 mi Calm Calm - N/A   Clear
10:52 AM 70.0 °F 25.0 °F 18% 30.13 in 10.0 mi Calm Calm - N/A   Clear
11:52 AM 73.9 °F 26.1 °F 17% 30.10 in 10.0 mi Calm Calm - N/A   Clear
12:52 PM 79.0 °F 25.0 °F 14% 30.06 in 10.0 mi North 5.8 mph - N/A   Clear
1:52 PM 81.0 °F 26.1 °F 13% 30.04 in 10.0 mi North 6.9 mph - N/A   Clear
2:52 PM 78.1 °F 35.1 °F 21% 30.02 in 10.0 mi East 5.8 mph - N/A   Clear
3:52 PM 77.0 °F 37.0 °F 24% 30.01 in 10.0 mi East 3.5 mph - N/A   Clear
4:52 PM 75.0 °F 27.0 °F 17% 30.01 in 10.0 mi NW 3.5 mph - N/A   Clear
5:52 PM 71.1 °F 34.0 °F 26% 30.03 in 10.0 mi Calm Calm - N/A   Clear
6:52 PM 64.9 °F 28.0 °F 25% 30.03 in 10.0 mi North 5.8 mph - N/A   Clear
7:52 PM 66.0 °F 26.1 °F 22% 30.05 in 10.0 mi Calm Calm - N/A   Clear
8:52 PM 63.0 °F 24.1 °F 23% 30.06 in 10.0 mi Variable 3.5 mph - N/A   Clear
9:52 PM 63.0 °F 24.1 °F 23% 30.05 in 10.0 mi Calm Calm - N/A   Clear
10:52 PM 59.0 °F 24.1 °F 26% 30.06 in 10.0 mi NW 5.8 mph - N/A   Clear
11:52 PM 57.9 °F 24.1 °F 27% 30.06 in 10.0 mi Calm Calm - N/A   Clear